2021 CN3
ephemeris date magn radius delta ra dec elong phase
Today5 Sep 202628.60.960 AU1.358 AU13h36m-12°30'44.9°47.9°
2021 CN3 - 2026-09-05
astro.vanbuitenen.nl


 
-1 year
-1 month
-1 day
Now
+1 day
+1 month
+1 year

The interactive orbit chart above shows the body's path through the solar system and its position at the given date. Green and blue lines are shown perpendicular to the ecliptic plane: Green if the path is above the ecliptic plane, blue if it is below. (Left-click and drag to rotate the view; Right-click and drag to move the view; Use scroll wheel to zoom in our out.)

The orbital elements of 2021 CN3 are:

            e (Eccentricity)                : 0.0788973
            a (Semimajor axis)              : 1.0366667
            i (Inclination)                 : 3.28339
            Ω (Longitude of ascending node) : 333.94459
            ω (Argument of perihelion)      : 259.45807
            M (Mean anomaly)                : 296.18266
            Epoch                           : 2026 Jun 09

            L (Longitude of perihelion)     : 53.38572
            B (Latitude of perihelion)      : -3.22791
            P (Orbital period in years)     : 1.06            
        

The light curve chart below shows the estimated development of the minor planet's magnitude.


The all-sky chart below shows the path of the minor planet over the same period as the light curve. The current position is marked yellow.





The following chart shows the path of the minor planet in the next few days. The field of view is optimized for (~10x50) binoculars and finderscopes.




Ephemerides:
Date       Time       RA (2000)    DEC (2000)    delta   radius  elong  phase   PA    magn
2026-09-05 00:00 UT   13 36 43.9   -12 30 59     1.358    0.960   44.9   47.9   114   28.6 
2026-09-05 02:51 UT   13 37 12.4   -12 33 40     1.357    0.960   44.9   47.9   114   28.6 
2026-09-06 00:00 UT   13 40 44.7   -12 53 25     1.356    0.960   45.0   47.9   113   28.6 
2026-09-07 00:00 UT   13 44 46.3   -13 15 38     1.355    0.961   45.1   48.0   113   28.6 
2026-09-08 00:00 UT   13 48 48.9   -13 37 37     1.354    0.961   45.2   48.0   113   28.6 
2026-09-09 00:00 UT   13 52 52.3   -13 59 22     1.353    0.962   45.2   48.0   113   28.6 
2026-09-10 00:00 UT   13 56 56.6   -14 20 53     1.352    0.962   45.3   48.1   113   28.6 
2026-09-11 00:00 UT   14 01 01.9   -14 42 08     1.350    0.963   45.4   48.1   112   28.6 
2026-09-12 00:00 UT   14 05 08.1   -15 03 07     1.349    0.964   45.5   48.1   112   28.6 
2026-09-13 00:00 UT   14 09 15.2   -15 23 50     1.348    0.964   45.5   48.1   112   28.6 


    Terminology:
            
    delta:  distance between minor planet and earth in AU
    radius: distance between minor planet and sun in AU
    magn:   magnitude (brightness) estimate    
    ra:     right ascension in hours (24h = 360deg)
    dec:    declination in degrees
    elong:  elongation in degrees (angle sun-earth-minor planet)    
    phase:  phase angle in degrees (angle sun-minor planet-earth)        
    AU:     Astronomical Unit (mean distance between earth and sun: 149597870.7 km
    

Orbital elements provided by the MPC (Minor Planet Center).
Calculations by a modified version of AAPlus, a C# implementation of the AA+ project by PJ Naughter from the algorithms presented in the book "Astronomical Algorithms" by Jean Meeus.
NGC2000 dso catalog and star labels from VizieR as provided by the Strasbourg astronomical Data Center.
Tycho2 catalog from the ESO archive.